Date String (YYYY-MM-DD hh:mm:ss) UTC,Instrument flags,absolute air pressure of the measurement (hPa),sample flow rate (lpm),inlet stack bypass flow (lpm),air temperature of the measurement (°C),ambient temperature measured by the external sensor (°C),aerosol sample conditioner tube jacket temperature (°C),OPC LED temperature (°C),internal box temperature (°C),relative humidity of the measurement (%),span deviation,mass concentration of particles derived from Lorenz-Mie calculation of OPC scattering (μg/m³),mass concentration of particles derived from Lorenz-Mie calculation of OPC scattering (μg/m³),mass concentration of particles derived from Lorenz-Mie calculation of OPC scattering (μg/m³)
DateTimeUTC,F1_M11,P_M11,Q1_M11,Q2_M11,T1_M11,T2_M11,T3_M11,T4_M11,T5_M11,U1_M11,ZSPAN_M11,X0_M11,X2_M11,X1_M11
2023-06-30 22:00:00,SystemResetWarning,0835.0,4.99,000.00,029.5,028.4,000.0,038.0,031.2,32.4,-003.4,0012.41,0005.84,0005.17
2023-06-30 22:01:00,SystemResetWarning,0835.0,5.00,000.00,029.6,028.4,000.0,038.0,031.2,32.6,-003.9,0012.37,0005.85,0005.20
2023-06-30 22:02:00,SystemResetWarning,0835.0,5.00,000.00,029.6,028.3,000.0,038.0,031.2,32.0,-004.1,0012.35,0005.83,0005.17
2023-06-30 22:03:00,SystemResetWarning,0834.9,5.00,000.00,029.6,026.7,000.0,037.9,031.0,31.5,-004.0,0012.13,0005.75,0005.10
2023-06-30 22:04:00,SystemResetWarning,0835.3,5.00,000.00,029.5,025.6,000.0,037.8,030.9,31.7,-004.2,0012.18,0005.62,0004.99
2023-06-30 22:05:00,SystemResetWarning,0835.3,5.00,000.00,029.4,025.6,000.0,037.8,030.6,32.3,-004.3,0011.82,0005.47,0004.88
2023-06-30 22:06:00,SystemResetWarning,0835.1,5.02,000.00,029.3,025.9,000.0,037.8,030.5,32.2,-004.8,0010.89,0005.43,0004.81
2023-06-30 22:07:00,SystemResetWarning,0834.9,5.00,000.00,029.3,026.3,000.0,037.8,030.6,32.2,-004.5,0011.07,0005.43,0004.74
2023-06-30 22:08:00,SystemResetWarning,0834.8,4.99,000.00,029.3,026.6,000.0,037.8,030.7,31.9,-004.5,0011.45,0005.40,0004.68
2023-06-30 22:09:00,SystemResetWarning,0834.9,4.99,000.00,029.3,026.9,000.0,037.9,030.8,32.6,-004.5,0011.36,0005.36,0004.64
2023-06-30 22:10:00,SystemResetWarning,0835.3,5.00,000.00,029.3,027.2,000.0,037.9,030.8,33.2,-004.3,0011.75,0005.32,0004.60
2023-06-30 22:11:00,SystemResetWarning,0835.3,5.00,000.00,029.3,027.5,000.0,037.9,030.9,32.5,-004.1,0011.35,0005.25,0004.52
2023-06-30 22:12:00,SystemResetWarning,0835.3,5.00,000.00,029.3,027.7,000.0,037.9,030.9,32.2,-004.0,0011.59,0005.20,0004.48
2023-06-30 22:13:00,SystemResetWarning,0835.1,5.01,000.00,029.3,027.8,000.0,037.9,031.0,31.7,-003.8,0011.43,0005.13,0004.42
2023-06-30 22:14:00,SystemResetWarning,0835.2,5.00,000.00,029.4,028.0,000.0,037.9,031.0,32.4,-003.7,0011.30,0005.09,0004.40
2023-06-30 22:15:00,SystemResetWarning,0834.7,5.00,000.00,029.4,028.1,000.0,037.9,031.0,32.9,-003.8,0011.00,0005.09,0004.41
2023-06-30 22:16:00,SystemResetWarning,0834.7,4.99,000.00,029.4,028.2,000.0,037.9,031.1,34.1,-003.8,0010.61,0005.14,0004.42
2023-06-30 22:17:00,SystemResetWarning,0834.7,4.99,000.00,029.5,028.3,000.0,037.9,031.1,34.2,-003.5,0010.58,0005.10,0004.41
2023-06-30 22:18:00,SystemResetWarning,0834.7,5.00,000.00,029.5,028.3,000.0,038.0,031.2,34.3,-003.3,0010.67,0005.06,0004.41
2023-06-30 22:19:00,SystemResetWarning,0835.1,4.99,000.00,029.5,028.4,000.0,038.0,031.2,34.0,-002.9,0010.78,0005.07,0004.40
2023-06-30 22:20:00,SystemResetWarning,0834.9,5.00,000.00,029.6,028.5,000.0,038.0,031.2,33.8,-002.9,0010.78,0005.10,0004.38
2023-06-30 22:21:00,SystemResetWarning,0834.6,5.00,000.00,029.6,028.4,000.0,038.0,031.2,33.9,-002.8,0010.39,0005.08,0004.37
2023-06-30 22:22:00,SystemResetWarning,0834.6,4.98,000.00,029.6,027.0,000.0,037.9,031.1,33.9,-002.8,0010.13,0005.06,0004.38
2023-06-30 22:23:00,SystemResetWarning,0834.9,5.00,000.00,029.5,025.7,000.0,037.8,030.9,33.3,-002.5,0009.89,0005.08,0004.38
2023-06-30 22:24:00,SystemResetWarning,0834.5,5.00,000.00,029.4,025.5,000.0,037.8,030.7,33.4,-002.5,0009.93,0005.07,0004.38
2023-06-30 22:25:00,SystemResetWarning,0834.4,5.02,000.00,029.3,025.7,000.0,037.8,030.6,33.7,-002.7,0009.94,0005.05,0004.36
2023-06-30 22:26:00,SystemResetWarning,0834.3,4.99,000.00,029.3,026.1,000.0,037.8,030.6,33.3,-002.6,0010.04,0005.09,0004.37
2023-06-30 22:27:00,SystemResetWarning,0834.4,5.00,000.00,029.3,026.5,000.0,037.9,030.7,33.7,-002.2,0010.12,0005.09,0004.38
2023-06-30 22:28:00,SystemResetWarning,0834.3,5.00,000.00,029.3,026.8,000.0,037.9,030.8,34.0,-002.6,0010.06,0005.07,0004.39
2023-06-30 22:29:00,SystemResetWarning,0834.5,5.00,000.00,029.3,027.1,000.0,037.9,030.8,34.5,-002.7,0010.64,0005.09,0004.41
2023-06-30 22:30:00,SystemResetWarning,0834.2,5.01,000.00,029.3,027.4,000.0,037.9,030.9,35.3,-003.2,0009.86,0005.08,0004.43
2023-06-30 22:31:00,SystemResetWarning,0834.2,5.00,000.00,029.5,027.6,000.0,037.9,031.0,34.0,-003.5,0009.75,0005.06,0004.44
2023-06-30 22:32:00,SystemResetWarning,0834.1,4.99,000.00,029.6,027.8,000.0,037.9,031.1,32.1,-003.5,0009.71,0005.08,0004.44
2023-06-30 22:33:00,SystemResetWarning,0834.1,5.01,000.00,029.7,027.9,000.0,037.9,031.1,30.7,-003.4,0009.76,0005.09,0004.45
2023-06-30 22:34:00,SystemResetWarning,0834.1,5.00,000.00,029.8,028.0,000.0,038.0,031.1,28.6,-003.4,0009.70,0005.07,0004.45
2023-06-30 22:35:00,SystemResetWarning,0834.0,5.00,000.00,029.8,028.2,000.0,038.0,031.1,27.6,-001.4,0009.77,0005.02,0004.40
2023-06-30 22:36:00,SystemResetWarning,0834.0,4.99,000.00,029.9,028.2,000.0,038.1,031.2,26.5,-000.2,0009.73,0004.97,0004.33
2023-06-30 22:37:00,SystemResetWarning,0833.9,5.00,000.00,029.9,028.3,000.0,038.1,031.2,27.3,-000.3,0009.53,0004.87,0004.23
2023-06-30 22:38:00,SystemResetWarning,0833.8,5.00,000.00,029.9,028.4,000.0,038.1,031.2,27.8,0000.0,0009.25,0004.72,0004.12
2023-06-30 22:39:00,SystemResetWarning,0833.8,5.00,000.00,030.0,028.4,000.0,038.2,031.3,27.9,0000.0,0009.05,0004.61,0004.01
2023-06-30 22:40:00,SystemResetWarning,0833.8,5.00,000.00,030.0,028.5,000.0,038.2,031.3,27.0,0000.0,0008.15,0004.48,0003.88
2023-06-30 22:41:00,SystemResetWarning,0833.7,4.99,000.00,030.0,028.2,000.0,038.2,031.3,26.2,0000.0,0007.65,0004.32,0003.76
2023-06-30 22:42:00,SystemResetWarning,0833.7,4.99,000.00,030.0,026.5,000.0,038.1,031.2,26.2,0000.0,0007.47,0004.20,0003.66
2023-06-30 22:43:00,SystemResetWarning,0833.7,5.01,000.00,029.9,025.6,000.0,038.1,031.0,26.6,0000.0,0007.09,0004.04,0003.56
2023-06-30 22:44:00,SystemResetWarning,0833.6,5.01,000.00,029.8,025.5,000.0,038.1,030.7,27.0,0000.0,0006.67,0003.91,0003.45
2023-06-30 22:45:00,SystemResetWarning,0833.6,5.00,000.00,029.7,025.9,000.0,038.1,030.6,27.3,0000.0,0006.52,0003.78,0003.34
2023-06-30 22:46:00,SystemResetWarning,0833.5,5.00,000.00,029.7,026.3,000.0,038.1,030.7,27.0,0000.0,0005.94,0003.69,0003.27
2023-06-30 22:47:00,SystemResetWarning,0833.6,5.00,000.00,029.7,026.6,000.0,038.1,030.8,26.6,0000.0,0005.70,0003.62,0003.24
2023-06-30 22:48:00,SystemResetWarning,0833.5,5.00,000.00,029.6,027.0,000.0,038.1,030.9,27.2,0000.0,0005.75,0003.59,0003.23
2023-06-30 22:49:00,SystemResetWarning,0833.5,5.00,000.00,029.7,027.3,000.0,038.1,030.9,27.5,0000.0,0005.91,0003.60,0003.22
2023-06-30 22:50:00,SystemResetWarning,0833.5,5.00,000.00,029.7,027.5,000.0,038.1,030.9,26.5,0000.0,0005.89,0003.59,0003.22
2023-06-30 22:51:00,SystemResetWarning,0833.5,5.00,000.00,029.7,027.7,000.0,038.1,031.0,26.6,0000.0,0005.97,0003.61,0003.23
2023-06-30 22:52:00,SystemResetWarning,0833.4,5.01,000.00,029.7,027.8,000.0,038.2,031.0,26.4,0000.0,0005.99,0003.59,0003.23
2023-06-30 22:53:00,SystemResetWarning,0833.4,5.00,000.00,029.7,028.0,000.0,038.2,031.1,27.2,0000.0,0005.95,0003.56,0003.21
2023-06-30 22:54:00,SystemResetWarning,0833.4,5.00,000.00,029.7,028.1,000.0,038.2,031.1,27.7,0000.0,0006.00,0003.57,0003.22
2023-06-30 22:55:00,SystemResetWarning,0833.4,5.00,000.00,029.8,028.2,000.0,038.2,031.1,26.8,0000.0,0006.05,0003.58,0003.22
2023-06-30 22:56:00,SystemResetWarning,0833.4,5.00,000.00,029.8,028.3,000.0,038.2,031.2,26.0,0000.0,0006.36,0003.57,0003.22
2023-06-30 22:57:00,SystemResetWarning,0833.4,5.00,000.00,029.8,028.4,000.0,038.2,031.2,26.7,0000.0,0007.43,0003.59,0003.22
2023-06-30 22:58:00,SystemResetWarning,0833.4,5.00,000.00,029.8,028.4,000.0,038.2,031.3,27.2,0000.0,0007.76,0003.60,0003.22
2023-06-30 22:59:00,SystemResetWarning,0833.4,5.00,000.00,029.9,028.5,000.0,038.3,031.3,26.7,0000.0,0007.84,0003.63,0003.22
